Satellite-Ground Cal/Val Site Overpasses Predictions

Prediction of Satellite NPP Overpassing Cal/Val Site: Antarctic Dome C

Ground Cal/Val Site Location: Latitude: -75.10, Longitude: 123.35; Satellite-Ground Site NADIR distance within 100 km.

Table of predicted overpasses for the next 14.0 days since TLE Epoch: 4/17/2020
Interval Starting Time Ending Time Minimum Distance Time Minimum Distance (km)
1 04/18/2020 07:43:46 04/18/2020 07:44:07 04/18/2020 07:43:56 70.82
2 04/19/2020 07:24:54 04/19/2020 07:25:21 04/19/2020 07:25:08 37.19
3 04/21/2020 15:07:21 04/21/2020 15:07:28 04/21/2020 15:07:25 96.63
4 04/22/2020 14:48:20 04/22/2020 14:48:49 04/22/2020 14:48:34 14.64
5 04/24/2020 07:31:10 04/24/2020 07:31:39 04/24/2020 07:31:25 3.18
6 04/27/2020 14:54:37 04/27/2020 14:55:05 04/27/2020 14:54:51 21.73
7 04/28/2020 14:35:55 04/28/2020 14:36:10 04/28/2020 14:36:02 85.26
8 04/29/2020 07:37:27 04/29/2020 07:37:54 04/29/2020 07:37:40 35.49


NCC Satellite Cal/Val Overpasses Prediction Service
